| time (UTC) | temp C | wind direction | speed KPH | gust KPH | rain 1hr cm | rain 24hr cm | rain mn cm | humidity % | barometer mb |
| 20260906213022 | 30 | 104 | 8.0 | 19.3 | 0.00 | 0.00 | 0.00 | 36 | 1018.6 |
| 20260906212524 | 30 | 197 | 6.4 | 19.3 | 0.00 | 0.00 | 0.00 | 37 | 1018.6 |
| 20260906212033 | 30 | 151 | 11.3 | 19.3 | 0.00 | 0.00 | 0.00 | 35 | 1018.6 |
| 20260906211515 | 30 | 134 | 9.7 | 20.9 | 0.00 | 0.00 | 0.00 | 35 | 1018.7 |
| 20260906211024 | 30 | 218 | 9.7 | 20.9 | 0.00 | 0.00 | 0.00 | 36 | 1018.7 |
| 20260906210545 | 30 | 137 | 9.7 | 20.9 | 0.00 | 0.00 | 0.00 | 34 | 1018.8 |
| 20260906210013 | 30 | 141 | 11.3 | 19.3 | 0.00 | 0.00 | 0.00 | 35 | 1018.9 |
| 20260906205514 | 30 | 232 | 9.7 | 19.3 | 0.00 | 0.00 | 0.00 | 36 | 1018.7 |
| 20260906205017 | 30 | 171 | 9.7 | 19.3 | 0.00 | 0.00 | 0.00 | 36 | 1018.9 |
| 20260906204526 | 30 | 166 | 11.3 | 22.5 | 0.00 | 0.00 | 0.00 | 36 | 1018.9 |
| 20260906204033 | 30 | 139 | 11.3 | 22.5 | 0.00 | 0.00 | 0.00 | 37 | 1019.0 |
| 20260906203536 | 30 | 140 | 9.7 | 19.3 | 0.00 | 0.00 | 0.00 | 37 | 1019.1 |
| 20260906203021 | 30 | 194 | 11.3 | 19.3 | 0.00 | 0.00 | 0.00 | 37 | 1019.2 |
| 20260906202529 | 30 | 276 | 11.3 | 20.9 | 0.00 | 0.00 | 0.00 | 36 | 1019.2 |
| 20260906202029 | 30 | 144 | 9.7 | 20.9 | 0.00 | 0.00 | 0.00 | 37 | 1019.3 |
| 20260906201538 | 30 | 153 | 9.7 | 17.7 | 0.00 | 0.00 | 0.00 | 36 | 1019.4 |
| 20260906201040 | 30 | 213 | 9.7 | 17.7 | 0.00 | 0.00 | 0.00 | 36 | 1019.5 |
| 20260906200528 | 29 | 180 | 11.3 | 20.9 | 0.00 | 0.00 | 0.00 | 37 | 1019.5 |
| 20260906200030 | 29 | 131 | 8.0 | 20.9 | 0.00 | 0.00 | 0.00 | 39 | 1019.5 |
| 20260906195531 | 29 | 180 | 12.9 | 24.1 | 0.00 | 0.00 | 0.00 | 37 | 1019.5 |
| 20260906195019 | 29 | 139 | 11.3 | 24.1 | 0.00 | 0.00 | 0.00 | 36 | 1019.5 |
| 20260906194521 | 29 | 131 | 11.3 | 16.1 | 0.00 | 0.00 | 0.00 | 39 | 1019.5 |
| 20260906194023 | 28 | 144 | 8.0 | 33.8 | 0.00 | 0.00 | 0.00 | 38 | 1019.6 |
| 20260906193532 | 28 | 140 | 16.1 | 33.8 | 0.00 | 0.00 | 0.00 | 38 | 1019.5 |
| 20260906193014 | 29 | 129 | 12.9 | 25.7 | 0.00 | 0.00 | 0.00 | 39 | 1019.6 |
| 20260906192516 | 28 | 178 | 6.4 | 24.1 | 0.00 | 0.00 | 0.00 | 39 | 1019.8 |
| 20260906192024 | 28 | 189 | 11.3 | 24.1 | 0.00 | 0.00 | 0.00 | 39 | 1019.9 |
| 20260906191545 | 28 | 144 | 16.1 | 24.1 | 0.00 | 0.00 | 0.00 | 40 | 1020.0 |
| 20260906191053 | 28 | 164 | 11.3 | 20.9 | 0.00 | 0.00 | 0.00 | 40 | 1020.1 |
| 20260906190514 | 28 | 194 | 9.7 | 24.1 | 0.00 | 0.00 | 0.00 | 42 | 1020.2 |
| 20260906190042 | 28 | 164 | 9.7 | 24.1 | 0.00 | 0.00 | 0.00 | 40 | 1020.1 |
| 20260906185530 | 28 | 134 | 16.1 | 24.1 | 0.00 | 0.00 | 0.00 | 40 | 1020.2 |
| 20260906185031 | 28 | 164 | 11.3 | 20.9 | 0.00 | 0.00 | 0.00 | 41 | 1020.3 |
| 20260906184513 | 28 | 180 | 9.7 | 19.3 | 0.00 | 0.00 | 0.00 | 40 | 1020.5 |
| 20260906184021 | 28 | 176 | 12.9 | 19.3 | 0.00 | 0.00 | 0.00 | 38 | 1020.5 |
| 20260906183523 | 28 | 173 | 8.0 | 14.5 | 0.00 | 0.00 | 0.00 | 40 | 1020.5 |
| 20260906183027 | 28 | 314 | 4.8 | 17.7 | 0.00 | 0.00 | 0.00 | 38 | 1020.7 |
| 20260906182513 | 28 | 152 | 8.0 | 19.3 | 0.00 | 0.00 | 0.00 | 39 | 1020.9 |
| 20260906182023 | 28 | 173 | 8.0 | 19.3 | 0.00 | 0.00 | 0.00 | 38 | 1020.9 |
| 20260906181524 | 28 | 197 | 8.0 | 16.1 | 0.00 | 0.00 | 0.00 | 40 | 1020.9 |
| 20260906181026 | 27 | 134 | 9.7 | 17.7 | 0.00 | 0.00 | 0.00 | 40 | 1021.0 |
| 20260906180535 | 27 | 157 | 6.4 | 12.9 | 0.00 | 0.00 | 0.00 | 40 | 1021.0 |
| 20260906180016 | 27 | 207 | 4.8 | 14.5 | 0.00 | 0.00 | 0.00 | 40 | 1021.0 |
| 20260906175545 | 27 | 179 | 9.7 | 14.5 | 0.00 | 0.00 | 0.00 | 40 | 1021.3 |
| 20260906175025 | 27 | 104 | 3.2 | 12.9 | 0.00 | 0.00 | 0.00 | 40 | 1021.3 |
| 20260906174527 | 27 | 98 | 4.8 | 11.3 | 0.00 | 0.00 | 0.00 | 42 | 1021.5 |
| 20260906174037 | 27 | 137 | 3.2 | 11.3 | 0.00 | 0.00 | 0.00 | 41 | 1021.5 |
| 20260906173518 | 26 | 164 | 4.8 | 12.9 | 0.00 | 0.00 | 0.00 | 43 | 1021.6 |
| 20260906173029 | 26 | 164 | 6.4 | 12.9 | 0.00 | 0.00 | 0.00 | 43 | 1021.6 |
| 20260906172531 | 26 | 72 | 3.2 | 11.3 | 0.00 | 0.00 | 0.00 | 44 | 1021.5 |
| 20260906172038 | 26 | 330 | 3.2 | 8.0 | 0.00 | 0.00 | 0.00 | 44 | 1021.7 |
| 20260906171520 | 25 | 94 | 4.8 | 9.7 | 0.00 | 0.00 | 0.00 | 46 | 1021.7 |
| 20260906171021 | 25 | 67 | 3.2 | 11.3 | 0.00 | 0.00 | 0.00 | 46 | 1021.7 |
| 20260906170529 | 25 | 347 | 6.4 | 11.3 | 0.00 | 0.00 | 0.00 | 46 | 1021.7 |
| 20260906170031 | 25 | 330 | 6.4 | 11.3 | 0.00 | 0.00 | 0.00 | 47 | 1021.7 |
| 20260906165540 | 24 | 268 | 4.8 | 9.7 | 0.00 | 0.00 | 0.00 | 50 | 1021.9 |
| 20260906165021 | 24 | 280 | 4.8 | 11.3 | 0.00 | 0.00 | 0.00 | 55 | 1022.0 |
| 20260906164522 | 23 | 189 | 6.4 | 11.3 | 0.00 | 0.00 | 0.00 | 54 | 1022.0 |
| 20260906164031 | 23 | 236 | 3.2 | 9.7 | 0.00 | 0.00 | 0.00 | 56 | 1022.0 |
| 20260906163513 | 23 | 268 | 3.2 | 11.3 | 0.00 | 0.00 | 0.00 | 58 | 1022.0 |
| 20260906163014 | 23 | 238 | 6.4 | 11.3 | 0.00 | 0.00 | 0.00 | 59 | 1022.2 |
| 20260906162544 | 22 | 286 | 6.4 | 11.3 | 0.00 | 0.00 | 0.00 | 60 | 1022.1 |
| 20260906162032 | 22 | 205 | 6.4 | 12.9 | 0.00 | 0.00 | 0.00 | 62 | 1022.1 |
| 20260906161514 | 22 | 223 | 4.8 | 12.9 | 0.00 | 0.00 | 0.00 | 63 | 1022.1 |
| 20260906161044 | 21 | 172 | 4.8 | 12.9 | 0.00 | 0.00 | 0.00 | 65 | 1022.2 |
| 20260906160525 | 21 | 167 | 4.8 | 12.9 | 0.00 | 0.00 | 0.00 | 64 | 1022.3 |
| 20260906160027 | 22 | 225 | 6.4 | 12.9 | 0.00 | 0.00 | 0.00 | 64 | 1022.4 |
| 20260906155536 | 22 | 171 | 6.4 | 17.7 | 0.00 | 0.00 | 0.00 | 65 | 1022.4 |
| 20260906155100 | 22 | 214 | 6.4 | 17.7 | 0.00 | 0.00 | 0.00 | 65 | 1022.4 |
| 20260906154521 | 21 | 157 | 6.4 | 16.1 | 0.00 | 0.00 | 0.00 | 67 | 1022.3 |
| 20260906154020 | 21 | 236 | 8.0 | 16.1 | 0.00 | 0.00 | 0.00 | 67 | 1022.2 |
| 20260906153529 | 21 | 232 | 9.7 | 14.5 | 0.00 | 0.00 | 0.00 | 68 | 1022.2 |
| 20260906153030 | 21 | 148 | 6.4 | 12.9 | 0.00 | 0.00 | 0.00 | 69 | 1022.3 |
| 20260906152513 | 21 | 222 | 6.4 | 14.5 | 0.00 | 0.00 | 0.00 | 70 | 1022.2 |
| 20260906152022 | 21 | 182 | 6.4 | 12.9 | 0.00 | 0.00 | 0.00 | 69 | 1022.3 |
| 20260906151524 | 21 | 186 | 8.0 | 12.9 | 0.00 | 0.00 | 0.00 | 71 | 1022.3 |
| 20260906151032 | 20 | 180 | 6.4 | 12.9 | 0.00 | 0.00 | 0.00 | 71 | 1022.3 |
| 20260906150514 | 20 | 220 | 8.0 | 12.9 | 0.00 | 0.00 | 0.00 | 73 | 1022.2 |
| 20260906150016 | 20 | 209 | 8.0 | 12.9 | 0.00 | 0.00 | 0.00 | 72 | 1022.2 |
| 20260906145518 | 20 | 212 | 6.4 | 14.5 | 0.00 | 0.00 | 0.00 | 74 | 1022.2 |
| 20260906145027 | 19 | 155 | 6.4 | 16.1 | 0.00 | 0.00 | 0.00 | 74 | 1022.2 |
| 20260906144529 | 19 | 220 | 9.7 | 16.1 | 0.00 | 0.00 | 0.00 | 74 | 1022.3 |
| 20260906144037 | 18 | 200 | 6.4 | 14.5 | 0.00 | 0.00 | 0.00 | 76 | 1022.3 |
| 20260906143516 | 18 | 225 | 11.3 | 14.5 | 0.00 | 0.00 | 0.00 | 76 | 1022.2 |
| 20260906143018 | 18 | 230 | 8.0 | 14.5 | 0.00 | 0.00 | 0.00 | 76 | 1022.2 |
| 20260906142527 | 18 | 219 | 9.7 | 14.5 | 0.00 | 0.00 | 0.00 | 76 | 1022.2 |
| 20260906142029 | 18 | 255 | 8.0 | 14.5 | 0.00 | 0.00 | 0.00 | 77 | 1022.2 |
| 20260906141530 | 18 | 243 | 8.0 | 14.5 | 0.00 | 0.00 | 0.00 | 78 | 1022.2 |
| 20260906141038 | 18 | 239 | 9.7 | 12.9 | 0.00 | 0.00 | 0.00 | 78 | 1022.2 |
| 20260906140519 | 18 | 214 | 6.4 | 12.9 | 0.00 | 0.00 | 0.00 | 79 | 1022.3 |
| 20260906140021 | 17 | 245 | 8.0 | 14.5 | 0.00 | 0.00 | 0.00 | 81 | 1022.2 |
| 20260906135530 | 17 | 232 | 9.7 | 14.5 | 0.00 | 0.00 | 0.00 | 82 | 1022.3 |
| 20260906135031 | 17 | 243 | 9.7 | 14.5 | 0.00 | 0.00 | 0.00 | 84 | 1022.2 |
| 20260906134521 | 17 | 243 | 9.7 | 12.9 | 0.00 | 0.00 | 0.00 | 85 | 1022.2 |
| 20260906134021 | 16 | 248 | 9.7 | 12.9 | 0.00 | 0.00 | 0.00 | 87 | 1022.0 |
| 20260906133550 | 16 | 232 | 8.0 | 11.3 | 0.00 | 0.00 | 0.00 | 89 | 1022.0 |
| 20260906133058 | 16 | 249 | 8.0 | 11.3 | 0.00 | 0.00 | 0.00 | 90 | 1022.2 |
| 20260906132518 | 15 | 221 | 8.0 | 12.9 | 0.00 | 0.00 | 0.00 | 91 | 1022.2 |
| 20260906132020 | 15 | 265 | 9.7 | 12.9 | 0.00 | 0.00 | 0.00 | 92 | 1022.2 |
| 20260906131529 | 15 | 234 | 6.4 | 9.7 | 0.00 | 0.00 | 0.00 | 92 | 1022.1 |
| 20260906131029 | 15 | 238 | 8.0 | 9.7 | 0.00 | 0.00 | 0.00 | 93 | 1022.1 |
| 20260906130531 | 15 | 251 | 6.4 | 8.0 | 0.00 | 0.00 | 0.00 | 92 | 1022.2 |
| 20260906130040 | 14 | 234 | 6.4 | 9.7 | 0.00 | 0.00 | 0.00 | 92 | 1022.2 |
| 20260906125521 | 14 | 248 | 6.4 | 9.7 | 0.00 | 0.00 | 0.00 | 92 | 1022.2 |
| 20260906125051 | 14 | 234 | 4.8 | 8.0 | 0.00 | 0.00 | 0.00 | 92 | 1022.2 |
| 20260906124539 | 14 | 239 | 4.8 | 8.0 | 0.00 | 0.00 | 0.00 | 91 | 1022.2 |
| 20260906124020 | 14 | 202 | 4.8 | 9.7 | 0.00 | 0.00 | 0.00 | 91 | 1022.0 |
| 20260906123521 | 14 | 249 | 6.4 | 9.7 | 0.00 | 0.00 | 0.00 | 91 | 1022.0 |
| 20260906123031 | 14 | 249 | 6.4 | 9.7 | 0.00 | 0.00 | 0.00 | 91 | 1022.0 |
| 20260906122532 | 14 | 247 | 6.4 | 9.7 | 0.00 | 0.00 | 0.00 | 90 | 1022.0 |
| 20260906122014 | 15 | 251 | 6.4 | 9.7 | 0.00 | 0.00 | 0.00 | 90 | 1022.0 |
| 20260906121543 | 15 | 253 | 4.8 | 9.7 | 0.00 | 0.00 | 0.00 | 89 | 1021.9 |
| 20260906121031 | 15 | 245 | 6.4 | 9.7 | 0.00 | 0.00 | 0.00 | 90 | 1021.8 |
| 20260906120513 | 15 | 258 | 4.8 | 8.0 | 0.00 | 0.00 | 0.00 | 89 | 1021.9 |
| 20260906120015 | 15 | 240 | 4.8 | 9.7 | 0.00 | 0.00 | 0.00 | 88 | 1021.9 |
| 20260906115522 | 15 | 243 | 6.4 | 9.7 | 0.00 | 0.00 | 0.00 | 88 | 1021.8 |
| 20260906115044 | 15 | 247 | 4.8 | 9.7 | 0.00 | 0.00 | 0.00 | 87 | 1021.9 |
| 20260906114514 | 15 | 255 | 4.8 | 9.7 | 0.00 | 0.00 | 0.00 | 86 | 1021.8 |
| 20260906114013 | 15 | 260 | 6.4 | 11.3 | 0.00 | 0.00 | 0.00 | 86 | 1021.8 |
| 20260906113522 | 15 | 245 | 8.0 | 11.3 | 0.00 | 0.00 | 0.00 | 85 | 1021.9 |
| 20260906113025 | 16 | 259 | 6.4 | 9.7 | 0.00 | 0.00 | 0.00 | 85 | 1021.8 |
| 20260906112532 | 16 | 245 | 6.4 | 9.7 | 0.00 | 0.00 | 0.00 | 85 | 1021.8 |
| 20260906112013 | 16 | 226 | 4.8 | 9.7 | 0.00 | 0.00 | 0.00 | 84 | 1021.8 |
| 20260906111514 | 16 | 223 | 6.4 | 11.3 | 0.00 | 0.00 | 0.00 | 84 | 1021.8 |
| 20260906111042 | 16 | 232 | 8.0 | 11.3 | 0.00 | 0.00 | 0.00 | 84 | 1021.7 |
| 20260906110522 | 16 | 212 | 8.0 | 11.3 | 0.00 | 0.00 | 0.00 | 84 | 1021.7 |
| 20260906110048 | 16 | 209 | 6.4 | 11.3 | 0.00 | 0.00 | 0.00 | 84 | 1021.8 |
| 20260906105527 | 17 | 204 | 6.4 | 16.1 | 0.00 | 0.00 | 0.00 | 84 | 1021.9 |
| 20260906105013 | 17 | 202 | 6.4 | 17.7 | 0.00 | 0.00 | 0.00 | 84 | 1021.9 |
| 20260906104522 | 17 | 207 | 9.7 | 17.7 | 0.00 | 0.00 | 0.00 | 84 | 1021.9 |
| 20260906104024 | 17 | 218 | 9.7 | 14.5 | 0.00 | 0.00 | 0.00 | 85 | 1021.9 |
| 20260906103533 | 17 | 223 | 8.0 | 12.9 | 0.00 | 0.00 | 0.00 | 86 | 1021.8 |
| 20260906103015 | 17 | 230 | 8.0 | 11.3 | 0.00 | 0.00 | 0.00 | 86 | 1021.7 |
| 20260906102516 | 17 | 220 | 8.0 | 11.3 | 0.00 | 0.00 | 0.00 | 86 | 1021.7 |
| 20260906102026 | 16 | 226 | 6.4 | 11.3 | 0.00 | 0.00 | 0.00 | 86 | 1021.7 |
| 20260906101527 | 16 | 270 | 6.4 | 9.7 | 0.00 | 0.00 | 0.00 | 85 | 1021.7 |
| 20260906101039 | 16 | 248 | 4.8 | 8.0 | 0.00 | 0.00 | 0.00 | 85 | 1021.7 |
| 20260906100518 | 17 | 232 | 4.8 | 8.0 | 0.00 | 0.00 | 0.00 | 85 | 1021.8 |
| 20260906100021 | 17 | 232 | 4.8 | 9.7 | 0.00 | 0.00 | 0.00 | 86 | 1021.7 |
| 20260906095522 | 17 | 245 | 6.4 | 9.7 | 0.00 | 0.00 | 0.00 | 86 | 1021.7 |
| 20260906095031 | 17 | 245 | 6.4 | 11.3 | 0.00 | 0.00 | 0.00 | 86 | 1021.5 |
| 20260906094513 | 16 | 236 | 8.0 | 11.3 | 0.00 | 0.00 | 0.00 | 87 | 1021.5 |
| 20260906094015 | 16 | 223 | 6.4 | 9.7 | 0.00 | 0.00 | 0.00 | 87 | 1021.3 |
| 20260906093524 | 16 | 230 | 6.4 | 9.7 | 0.00 | 0.00 | 0.00 | 88 | 1021.3 |
| 20260906093054 | 15 | 237 | 4.8 | 8.0 | 0.00 | 0.00 | 0.00 | 88 | 1021.3 |
| 20260906092515 | 14 | 189 | 0.0 | 3.2 | 0.00 | 0.00 | 0.00 | 83 | 1021.3 |
| 20260906092017 | 14 | 189 | 0.0 | 3.2 | 0.00 | 0.00 | 0.00 | 83 | 1021.3 |
| 20260906091547 | 14 | 276 | 1.6 | 3.2 | 0.00 | 0.00 | 0.00 | 83 | 1021.3 |
| 20260906091027 | 14 | 276 | 1.6 | 3.2 | 0.00 | 0.00 | 0.00 | 85 | 1021.2 |
| 20260906090535 | 14 | 320 | 1.6 | 3.2 | 0.00 | 0.00 | 0.00 | 84 | 1021.2 |
| 20260906090017 | 14 | 232 | 1.6 | 3.2 | 0.00 | 0.00 | 0.00 | 84 | 1021.3 |
| 20260906085520 | 14 | 223 | 1.6 | 3.2 | 0.00 | 0.00 | 0.00 | 84 | 1021.4 |
| 20260906085029 | 14 | 173 | 1.6 | 4.8 | 0.00 | 0.00 | 0.00 | 84 | 1021.4 |
| 20260906084530 | 14 | 250 | 1.6 | 6.4 | 0.00 | 0.00 | 0.00 | 84 | 1021.5 |
| 20260906084031 | 13 | 245 | 4.8 | 6.4 | 0.00 | 0.00 | 0.00 | 84 | 1021.4 |
| 20260906083513 | 13 | 148 | 1.6 | 3.2 | 0.00 | 0.00 | 0.00 | 84 | 1021.4 |
| 20260906083022 | 13 | 112 | 1.6 | 3.2 | 0.00 | 0.00 | 0.00 | 83 | 1021.4 |
| 20260906082524 | 13 | 20 | 1.6 | 3.2 | 0.00 | 0.00 | 0.00 | 83 | 1021.5 |
| 20260906082032 | 13 | 104 | 0.0 | 3.2 | 0.00 | 0.00 | 0.00 | 82 | 1021.7 |
| 20260906081513 | 14 | 216 | 0.0 | 3.2 | 0.00 | 0.00 | 0.00 | 82 | 1021.7 |
| 20260906081036 | 14 | 216 | 1.6 | 3.2 | 0.00 | 0.00 | 0.00 | 82 | 1021.8 |
| 20260906080518 | 14 | 169 | 1.6 | 3.2 | 0.00 | 0.00 | 0.00 | 82 | 1021.7 |
| 20260906080020 | 14 | 260 | 3.2 | 3.2 | 0.00 | 0.00 | 0.00 | 83 | 1021.7 |
| 20260906075521 | 14 | 189 | 1.6 | 4.8 | 0.00 | 0.00 | 0.00 | 83 | 1021.8 |
| 20260906075029 | 14 | 62 | 0.0 | 4.8 | 0.00 | 0.00 | 0.00 | 83 | 1021.7 |
| 20260906074600 | 14 | 327 | 1.6 | 3.2 | 0.00 | 0.00 | 0.00 | 83 | 1021.7 |
| 20260906074020 | 14 | 302 | 1.6 | 3.2 | 0.00 | 0.00 | 0.00 | 84 | 1021.8 |
| 20260906073521 | 14 | 62 | 0.0 | 4.8 | 0.00 | 0.00 | 0.00 | 84 | 1021.8 |
| 20260906073052 | 14 | 261 | 0.0 | 4.8 | 0.00 | 0.00 | 0.00 | 83 | 1021.7 |
| 20260906072512 | 14 | 196 | 1.6 | 4.8 | 0.00 | 0.00 | 0.00 | 82 | 1021.7 |
| 20260906072013 | 15 | 189 | 0.0 | 3.2 | 0.00 | 0.00 | 0.00 | 83 | 1021.6 |
| 20260906071520 | 15 | 293 | 0.0 | 6.4 | 0.00 | 0.00 | 0.00 | 83 | 1021.7 |
| 20260906071022 | 15 | 131 | 0.0 | 9.7 | 0.00 | 0.00 | 0.00 | 83 | 1021.7 |
| 20260906070531 | 14 | 293 | 4.8 | 9.7 | 0.00 | 0.00 | 0.00 | 84 | 1021.7 |
| 20260906070014 | 14 | 247 | 4.8 | 8.0 | 0.00 | 0.00 | 0.00 | 84 | 1021.7 |
| 20260906065514 | 14 | 268 | 4.8 | 8.0 | 0.00 | 0.00 | 0.00 | 84 | 1021.7 |
| 20260906065023 | 14 | 286 | 4.8 | 8.0 | 0.00 | 0.00 | 0.00 | 83 | 1021.8 |
| 20260906064525 | 15 | 290 | 4.8 | 8.0 | 0.00 | 0.00 | 0.00 | 84 | 1021.8 |
| 20260906064054 | 15 | 256 | 4.8 | 11.3 | 0.00 | 0.00 | 0.00 | 84 | 1021.8 |
| 20260906063515 | 14 | 300 | 6.4 | 11.3 | 0.00 | 0.00 | 0.00 | 84 | 1021.6 |
| 20260906063043 | 15 | 284 | 6.4 | 9.7 | 0.00 | 0.00 | 0.00 | 83 | 1021.5 |
| 20260906062524 | 15 | 303 | 4.8 | 8.0 | 0.00 | 0.00 | 0.00 | 81 | 1021.5 |
| 20260906062053 | 15 | 236 | 3.2 | 4.8 | 0.00 | 0.00 | 0.00 | 80 | 1021.6 |
| 20260906061514 | 16 | 276 | 1.6 | 3.2 | 0.00 | 0.00 | 0.00 | 81 | 1021.7 |
| 20260906061015 | 16 | 164 | 1.6 | 3.2 | 0.00 | 0.00 | 0.00 | 81 | 1021.7 |
| 20260906060525 | 16 | 62 | 0.0 | 3.2 | 0.00 | 0.00 | 0.00 | 80 | 1021.7 |
| 20260906060026 | 16 | 309 | 1.6 | 4.8 | 0.00 | 0.00 | 0.00 | 80 | 1021.7 |
| 20260906055535 | 16 | 312 | 3.2 | 6.4 | 0.00 | 0.00 | 0.00 | 79 | 1021.8 |
| 20260906055017 | 17 | 104 | 3.2 | 6.4 | 0.00 | 0.00 | 0.00 | 80 | 1021.7 |
| 20260906054519 | 17 | 137 | 3.2 | 6.4 | 0.00 | 0.00 | 0.00 | 79 | 1021.5 |
| 20260906054021 | 17 | 153 | 3.2 | 12.9 | 0.00 | 0.00 | 0.00 | 79 | 1021.6 |
| 20260906053530 | 17 | 33 | 4.8 | 12.9 | 0.00 | 0.00 | 0.00 | 79 | 1021.5 |
| 20260906053012 | 17 | 141 | 9.7 | 12.9 | 0.00 | 0.00 | 0.00 | 78 | 1021.4 |
| 20260906052514 | 17 | 110 | 6.4 | 11.3 | 0.00 | 0.00 | 0.00 | 77 | 1021.4 |
| 20260906052023 | 17 | 104 | 3.2 | 9.7 | 0.00 | 0.00 | 0.00 | 75 | 1021.5 |
| 20260906051525 | 17 | 65 | 3.2 | 9.7 | 0.00 | 0.00 | 0.00 | 74 | 1021.4 |
| 20260906051033 | 17 | 114 | 3.2 | 8.0 | 0.00 | 0.00 | 0.00 | 74 | 1021.5 |
| 20260906050515 | 17 | 168 | 3.2 | 16.1 | 0.00 | 0.00 | 0.00 | 73 | 1021.5 |
| 20260906050037 | 17 | 94 | 6.4 | 16.1 | 0.00 | 0.00 | 0.00 | 74 | 1021.5 |
| 20260906045523 | 17 | 134 | 4.8 | 14.5 | 0.00 | 0.00 | 0.00 | 71 | 1021.5 |
| 20260906045032 | 17 | 112 | 8.0 | 9.7 | 0.00 | 0.00 | 0.00 | 68 | 1021.5 |
| 20260906044535 | 18 | 160 | 3.2 | 6.4 | 0.00 | 0.00 | 0.00 | 66 | 1021.3 |
| 20260906044039 | 18 | 137 | 3.2 | 8.0 | 0.00 | 0.00 | 0.00 | 65 | 1021.3 |
| 20260906043547 | 18 | 134 | 3.2 | 9.7 | 0.00 | 0.00 | 0.00 | 62 | 1021.3 |
| 20260906043027 | 18 | 96 | 4.8 | 11.3 | 0.00 | 0.00 | 0.00 | 61 | 1021.3 |
| 20260906042555 | 18 | 128 | 4.8 | 11.3 | 0.00 | 0.00 | 0.00 | 59 | 1021.3 |
| 20260906042016 | 18 | 104 | 6.4 | 9.7 | 0.00 | 0.00 | 0.00 | 58 | 1021.6 |
| 20260906041518 | 18 | 131 | 1.6 | 9.7 | 0.00 | 0.00 | 0.00 | 58 | 1021.3 |
| 20260906041027 | 19 | 108 | 8.0 | 9.7 | 0.00 | 0.00 | 0.00 | 56 | 1021.5 |
| 20260906040557 | 20 | 79 | 3.2 | 11.3 | 0.00 | 0.00 | 0.00 | 55 | 1021.3 |
| 20260906040018 | 20 | 104 | 4.8 | 11.3 | 0.00 | 0.00 | 0.00 | 56 | 1021.4 |
| 20260906035519 | 19 | 62 | 4.8 | 12.9 | 0.00 | 0.00 | 0.00 | 57 | 1021.3 |
| 20260906035021 | 19 | 104 | 9.7 | 12.9 | 0.00 | 0.00 | 0.00 | 49 | 1021.5 |
| 20260906034529 | 20 | 62 | 0.0 | 4.8 | 0.00 | 0.00 | 0.00 | 44 | 1021.1 |
| 20260906034030 | 20 | 199 | 3.2 | 4.8 | 0.00 | 0.00 | 0.00 | 42 | 1021.1 |
| 20260906033539 | 20 | 327 | 0.0 | 3.2 | 0.00 | 0.00 | 0.00 | 42 | 1021.0 |
| 20260906033020 | 21 | 104 | 0.0 | 3.2 | 0.00 | 0.00 | 0.00 | 40 | 1020.9 |
| 20260906032529 | 21 | 52 | 0.0 | 3.2 | 0.00 | 0.00 | 0.00 | 40 | 1020.8 |
| 20260906032031 | 22 | 320 | 1.6 | 4.8 | 0.00 | 0.00 | 0.00 | 38 | 1020.8 |
| 20260906031530 | 22 | 320 | 1.6 | 4.8 | 0.00 | 0.00 | 0.00 | 37 | 1020.7 |
| 20260906031018 | 23 | 62 | 1.6 | 3.2 | 0.00 | 0.00 | 0.00 | 36 | 1020.8 |
| 20260906030519 | 23 | 104 | 0.0 | 4.8 | 0.00 | 0.00 | 0.00 | 35 | 1020.8 |
| 20260906030050 | 23 | 320 | 0.0 | 8.0 | 0.00 | 0.00 | 0.00 | 34 | 1020.8 |
| 20260906025529 | 23 | 62 | 3.2 | 12.9 | 0.00 | 0.00 | 0.00 | 34 | 1020.8 |
| 20260906025038 | 23 | 79 | 6.4 | 14.5 | 0.00 | 0.00 | 0.00 | 34 | 1020.7 |
| 20260906024520 | 23 | 75 | 6.4 | 20.9 | 0.00 | 0.00 | 0.00 | 34 | 1020.7 |
| 20260906024022 | 23 | 111 | 6.4 | 20.9 | 0.00 | 0.00 | 0.00 | 35 | 1020.7 |
| 20260906023531 | 23 | 147 | 9.7 | 14.5 | 0.00 | 0.00 | 0.00 | 36 | 1020.5 |
| 20260906023013 | 23 | 128 | 3.2 | 11.3 | 0.00 | 0.00 | 0.00 | 35 | 1020.5 |
| 20260906022522 | 23 | 332 | 4.8 | 9.7 | 0.00 | 0.00 | 0.00 | 35 | 1020.4 |
| 20260906022023 | 23 | 330 | 6.4 | 12.9 | 0.00 | 0.00 | 0.00 | 35 | 1020.3 |
| 20260906021532 | 23 | 315 | 6.4 | 14.5 | 0.00 | 0.00 | 0.00 | 35 | 1020.3 |
| 20260906021013 | 23 | 332 | 8.0 | 14.5 | 0.00 | 0.00 | 0.00 | 34 | 1020.3 |
| 20260906020542 | 23 | 311 | 8.0 | 14.5 | 0.00 | 0.00 | 0.00 | 34 | 1020.2 |
| 20260906020051 | 23 | 323 | 9.7 | 14.5 | 0.00 | 0.00 | 0.00 | 34 | 1020.2 |
| 20260906015533 | 23 | 334 | 8.0 | 14.5 | 0.00 | 0.00 | 0.00 | 35 | 1020.1 |
| 20260906015014 | 24 | 334 | 8.0 | 12.9 | 0.00 | 0.00 | 0.00 | 35 | 1020.1 |
| 20260906014543 | 24 | 312 | 8.0 | 16.1 | 0.00 | 0.00 | 0.00 | 34 | 1020.1 |
| 20260906014024 | 25 | 327 | 9.7 | 16.1 | 0.00 | 0.00 | 0.00 | 33 | 1020.1 |
| 20260906013532 | 25 | 307 | 6.4 | 14.5 | 0.00 | 0.00 | 0.00 | 32 | 1020.0 |
| 20260906013013 | 25 | 302 | 8.0 | 14.5 | 0.00 | 0.00 | 0.00 | 30 | 1019.9 |
| 20260906012515 | 26 | 318 | 6.4 | 12.9 | 0.00 | 0.00 | 0.00 | 30 | 1019.9 |
| 20260906012045 | 26 | 342 | 8.0 | 14.5 | 0.00 | 0.00 | 0.00 | 30 | 1019.9 |
| 20260906011533 | 26 | 347 | 9.7 | 14.5 | 0.00 | 0.00 | 0.00 | 29 | 1020.1 |
| 20260906011014 | 26 | 336 | 6.4 | 19.3 | 0.00 | 0.00 | 0.00 | 29 | 1020.2 |
| 20260906010515 | 26 | 349 | 11.3 | 19.3 | 0.00 | 0.00 | 0.00 | 29 | 1020.1 |
| 20260906010024 | 26 | 332 | 11.3 | 19.3 | 0.00 | 0.00 | 0.00 | 29 | 1020.1 |
| 20260906005553 | 27 | 321 | 14.5 | 19.3 | 0.00 | 0.00 | 0.00 | 28 | 1020.1 |
| 20260906005015 | 27 | 332 | 11.3 | 14.5 | 0.00 | 0.00 | 0.00 | 27 | 1020.1 |
| 20260906004516 | 28 | 334 | 3.2 | 6.4 | 0.00 | 0.00 | 0.00 | 26 | 1020.1 |
| 20260906004025 | 28 | 339 | 3.2 | 8.0 | 0.00 | 0.00 | 0.00 | 25 | 1020.1 |
| 20260906003527 | 28 | 293 | 3.2 | 8.0 | 0.00 | 0.00 | 0.00 | 25 | 1020.1 |
| 20260906003028 | 28 | 334 | 3.2 | 9.7 | 0.00 | 0.00 | 0.00 | 24 | 1020.1 |
| 20260906002536 | 28 | 35 | 4.8 | 12.9 | 0.00 | 0.00 | 0.00 | 24 | 1020.1 |
| 20260906002017 | 29 | 334 | 6.4 | 12.9 | 0.00 | 0.00 | 0.00 | 24 | 1020.1 |
| 20260906001528 | 29 | 340 | 4.8 | 9.7 | 0.00 | 0.00 | 0.00 | 24 | 1020.0 |
| 20260906001028 | 28 | 20 | 4.8 | 9.7 | 0.00 | 0.00 | 0.00 | 24 | 1020.0 |
| 20260906000529 | 28 | 349 | 3.2 | 9.7 | 0.00 | 0.00 | 0.00 | 24 | 1020.1 |
| 20260906000016 | 29 | 52 | 1.6 | 11.3 | 0.00 | 0.00 | 0.00 | 24 | 1020.1 |
| 20260905235517 | 29 | 353 | 6.4 | 11.3 | 0.00 | 0.00 | 0.00 | 24 | 1020.1 |
| 20260905235046 | 29 | 54 | 4.8 | 12.9 | 0.00 | 0.00 | 0.00 | 24 | 1020.2 |
| 20260905234527 | 29 | 104 | 4.8 | 11.3 | 0.00 | 0.00 | 0.00 | 24 | 1020.1 |
| 20260905234035 | 30 | 89 | 6.4 | 11.3 | 0.00 | 0.00 | 0.00 | 24 | 1020.1 |
| 20260905233517 | 30 | 320 | 4.8 | 16.1 | 0.00 | 0.00 | 0.00 | 23 | 1020.0 |
| 20260905233019 | 30 | 20 | 6.4 | 16.1 | 0.00 | 0.00 | 0.00 | 23 | 1019.8 |
| 20260905232521 | 30 | 81 | 8.0 | 14.5 | 0.00 | 0.00 | 0.00 | 24 | 1019.8 |
| 20260905232051 | 30 | 60 | 6.4 | 14.5 | 0.00 | 0.00 | 0.00 | 24 | 1019.9 |
| 20260905231538 | 30 | 57 | 4.8 | 16.1 | 0.00 | 0.00 | 0.00 | 24 | 1019.8 |
| 20260905231019 | 30 | 53 | 6.4 | 14.5 | 0.00 | 0.00 | 0.00 | 23 | 1019.8 |
| 20260905230527 | 30 | 62 | 3.2 | 16.1 | 0.00 | 0.00 | 0.00 | 23 | 1019.8 |
| 20260905230052 | 30 | 62 | 6.4 | 16.1 | 0.00 | 0.00 | 0.00 | 24 | 1019.9 |
| 20260905225553 | 30 | 55 | 8.0 | 17.7 | 0.00 | 0.00 | 0.00 | 24 | 1019.8 |
| 20260905225022 | 30 | 39 | 6.4 | 16.1 | 0.00 | 0.00 | 0.00 | 24 | 1019.6 |
| 20260905224522 | 30 | 65 | 11.3 | 16.1 | 0.00 | 0.00 | 0.00 | 25 | 1019.6 |
| 20260905224024 | 29 | 57 | 8.0 | 16.1 | 0.00 | 0.00 | 0.00 | 24 | 1019.6 |
| 20260905223533 | 29 | 87 | 8.0 | 17.7 | 0.00 | 0.00 | 0.00 | 24 | 1019.6 |
| 20260905223021 | 29 | 122 | 8.0 | 20.9 | 0.00 | 0.00 | 0.00 | 25 | 1019.5 |
| 20260905222522 | 29 | 78 | 9.7 | 20.9 | 0.00 | 0.00 | 0.00 | 23 | 1019.7 |
| 20260905222050 | 30 | 94 | 11.3 | 14.5 | 0.00 | 0.00 | 0.00 | 23 | 1019.8 |
| 20260905221537 | 30 | 144 | 4.8 | 22.5 | 0.00 | 0.00 | 0.00 | 24 | 1019.8 |
| 20260905221039 | 30 | 60 | 14.5 | 24.1 | 0.00 | 0.00 | 0.00 | 23 | 1019.8 |
| 20260905220520 | 30 | 119 | 14.5 | 30.6 | 0.00 | 0.00 | 0.00 | 23 | 1019.9 |
| 20260905220029 | 30 | 148 | 9.7 | 30.6 | 0.00 | 0.00 | 0.00 | 21 | 1019.9 |
| 20260905215529 | 31 | 173 | 17.7 | 29.0 | 0.00 | 0.00 | 0.00 | 21 | 1019.9 |
| 20260905215037 | 31 | 129 | 12.9 | 25.7 | 0.00 | 0.00 | 0.00 | 22 | 1019.9 |
| 20260905214537 | 31 | 126 | 16.1 | 25.7 | 0.00 | 0.00 | 0.00 | 22 | 1020.1 |
| 20260905214025 | 30 | 20 | 11.3 | 27.4 | 0.00 | 0.00 | 0.00 | 22 | 1020.1 |
| 20260905213554 | 30 | 91 | 17.7 | 27.4 | 0.00 | 0.00 | 0.00 | 23 | 1020.2 |